Regional Weather Roundup
Issued by NWS

Home | Current Version | Previous Version | Graphics & Text | Print | Product List | Glossary On
Versions: 1 2 3 4 5 6 7 8 9 10 11 12 13 14 15 16 17 18 19 20 21 22 23 24 25 26 27 28 29 30 31 32 33 34 35 36 37 38 39 40 41 42 43 44 45 46 47 48 49 50
960
ASUS43 KLOT 111208
RWRIL

ILLINOIS REGIONAL WEATHER ROUNDUP
NATIONAL WEATHER SERVICE CHICAGO/ROMEOVILLE IL
600 AM CST MON DEC 11 2017

NOTE: "FAIR" INDICATES FEW OR NO CLOUDS BELOW 12,000 FEET WITH NO
SIGNIFICANT WEATHER AND/OR OBSTRUCTIONS TO VISIBILITY.

* THESE STATIONS ARE NOT UNDER NWS QUALITY CONTROL. THEY ALSO MAY NOT
  REPORT WEATHER SUCH AS PRECIPITATION OR FOG.

ILZ001-002-007-009-015-016-024-111300-
NORTHWEST ILLINOIS

CITY           SKY/WX    TMP DP  RH WIND       PRES   REMARKS
MOLINE         CLOUDY    32  25  75 S9        29.90F WCI  24
6HR MIN TEMP:  23; 6HR MAX TEMP:  32;

STERLING*      PTCLDY    28  23  81 SE3       29.95F
SAVANNA*       CLOUDY    28  23  82 CALM      29.93F
$$

ILZ003-004-008-010-011-017-018-111300-
NORTH CENTRAL ILLINOIS

CITY           SKY/WX    TMP DP  RH WIND       PRES   REMARKS
ROCKFORD       CLOUDY    25  20  81 SE7       29.96F WCI  17
6HR MIN TEMP:  18; 6HR MAX TEMP:  25; 6HR PCP: TRACE;

FREEPORT*      CLOUDY    26  22  84 S6        29.95F WCI  19
ROCHELLE*      CLOUDY    26  22  85 SE6       29.96S WCI  19
DE KALB*       CLOUDY    25  22  89 S8        29.96S WCI  16
PERU*          CLOUDY    27  22  81 S10       29.97F WCI  17
$$

ILZ005-006-012>014-019>023-111300-
NORTHEAST ILLINOIS

CITY           SKY/WX    TMP DP  RH WIND       PRES   REMARKS
CHICAGO-OHARE  CLOUDY    28  20  71 S10       29.96F WCI  19
6HR MIN TEMP:  23; 6HR MAX TEMP:  28; 6HR PCP: TRACE;

CHICAGO-MIDWAY CLOUDY    28  20  71 S10       29.99F WCI  19
6HR MIN TEMP:  26; 6HR MAX TEMP:  29; 6HR PCP: TRACE;

AURORA         CLOUDY    24  21  88 SE5       29.97F WCI  18
6HR MIN TEMP:  16; 6HR MAX TEMP:  25;

LANSING*       CLOUDY    26  23  89 S5        30.01F WCI  20
WAUKEGAN       CLOUDY    26  19  74 S7        29.96F WCI  18
6HR MIN TEMP:  17; 6HR MAX TEMP:  26; 6HR PCP: TRACE;

DUPAGE AIRPORT CLOUDY    25  22  88 S7        29.95F WCI  17
6HR MIN TEMP:  17; 6HR MAX TEMP:  25;

KANKAKEE*      CLOUDY    25  21  83 S3        30.03F
WHEELING       CLOUDY    27  23  85 S7        29.98F WCI  19
6HR MIN TEMP:  20; 6HR MAX TEMP:  28; 6HR PCP: TRACE;

MORRIS*        CLOUDY    26  22  86 S6        29.98F WCI  19
ROMEOVILLE*    CLOUDY    26  23  89 S7        29.98F WCI  18
NORTHERLY ISL    N/A     27  19  72 S9          N/A  WCI  18
$$

LMZ740>746-111300-
SOUTHERN LAKE MICHIGAN

STATION/POSITION SKY/WX   TEMP    WIND        PRES    VSBY  WAVE
                          AIR SEA DIR/SP/G                  HT/PER
                          (F)     (DEG/KT/KT) (MB)    (MI)  (FT/S)
HARRISON CRIB              29     190/ 15/ 16   N/A
BURNHAM HARBOR             28     160/  7/ 10   N/A
CALUMET HARBOR             27     170/  7/  9 1015.3F
BURNS HARBOR               28     200/  7/ 10 1016.9S
MICHIGAN CITY              27     180/  8/  9   N/A
$$

ILZ025>027-034>036-040-047-049-050-058-095>099-111300-
WEST-CENTRAL ILLINOIS

CITY           SKY/WX    TMP DP  RH WIND       PRES   REMARKS
QUINCY         CLOUDY    32  26  78 S7        29.95F WCI  26
GALESBURG*     PTCLDY    29  25  87 S6        29.94F WCI  23
MACOMB*        PTCLDY    32  25  77 S9        29.97F WCI  24
JACKSONVILLE*  CLOUDY    32  24  72 S8        29.98F WCI  25
PITTSFIELD*    PTCLDY    31  26  80 S5        29.98F WCI  26
$$

ILZ028>032-037-038-041>044-048-051>054-059>061-111300-
CENTRAL ILLINOIS

CITY           SKY/WX    TMP DP  RH WIND       PRES   REMARKS
PONTIAC        CLOUDY    26  25  95 SE6       30.00F WCI  20
BLOOMINGTON    CLOUDY    28  24  85 S10       30.01R WCI  19
PEORIA         CLOUDY    28  24  85 S8        30.00S WCI  20
6HR MIN TEMP:  23; 6HR MAX TEMP:  29;

LACON*         PTCLDY    28  24  84 S5        29.98F WCI  23
LINCOLN*       PTCLDY    29  25  85 S7        30.01F WCI  22
SPRINGFIELD    CLOUDY    31  25  78 S9        30.01F WCI  23
6HR MIN TEMP:  24; 6HR MAX TEMP:  32;

TAYLORVILLE    CLOUDY    30  24  81 S9        30.03S WCI  21
6HR MIN TEMP:  22; 6HR MAX TEMP:  31;

$$

ILZ033-039-045-046-055>057-062-063-111300-
EAST-CENTRAL ILLINOIS

CITY           SKY/WX    TMP DP  RH WIND       PRES   REMARKS
CHAMPAIGN      CLOUDY    29  23  78 S10       30.02F WCI  20
DANVILLE*      CLOUDY    26  22  84 S6        30.00F WCI  20
RANTOUL*       CLOUDY    29  25  84 S9        30.01F WCI  21
MATTOON        CLOUDY    30  24  78 S9        30.04S WCI  22
PARIS*         CLOUDY    28  24  87 S8        30.05F WCI  20
$$

ILZ079-100>102-111300-
SOUTHWEST ILLINOIS

CITY           SKY/WX    TMP DP  RH WIND       PRES   REMARKS
ALTON          CLOUDY    29  26  88 CALM      30.03F
BELLEVILLE     CLOUDY    27  22  83 CALM      30.03F
CAHOKIA*       CLOUDY    27  22  81 CALM      30.04F
$$

ILZ064>066-069>071-074>076-080>082-084>086-088>090-092>094-111300-
SOUTH-CENTRAL ILLINOIS

CITY           SKY/WX    TMP DP  RH WIND       PRES   REMARKS
CARBONDALE     CLEAR     24  22  91 CALM      30.08F
6HR MIN TEMP:  22; 6HR MAX TEMP:  27;

CAIRO*         CLEAR     26  25  98 CALM      30.12R
EFFINGHAM*     CLOUDY    31  26  82 SE3       30.07F
MARION         CLEAR     30  29  96 S3        30.09F
MT. VERNON     PTCLDY    23  22  96 CALM      30.08F
CENTRALIA*     CLOUDY    34  29  80 S6        30.06S WCI  29
SALEM*         CLOUDY    33  25  75 S3        30.07F
METROPOLIS*    CLEAR     25  24  93 CALM      30.13R
$$

ILZ067-068-072-073-078-083-087-091-111300-
SOUTHEAST ILLINOIS

CITY           SKY/WX    TMP DP  RH WIND       PRES   REMARKS
LAWRENCEVILLE  CLOUDY    28  25  88 S3        30.09F
FLORA*         CLOUDY    30  26  85 S3        30.08F
FAIRFIELD*     PTCLDY    25  23  92 CALM      30.07F
HARRISBURG*    CLEAR     24  24  96 CALM      30.10F
ROBINSON*      CLOUDY    27  24  91 CALM      30.09F
CARMI*         CLEAR     24  23  95 CALM      30.10S
$$

ABBREVIATIONS USED IN REMARKS
   TC - TEMPERATURE IN CELSIUS
  WCI - WIND CHILL INDEX
   HX - HEAT INDEX
  VSB - VISIBILITY
$$





USA.gov is the U.S. government's official web portal to all federal, state and local government web resources and services.